Flag for Norway Weather past 2 weeks in Honningsvåg, Norway

Now
17 °F

Cold.


Feels Like: 10 °F
Forecast: 29 / 34 °F
Wind: 5 mph from Southwest

Location: Hammerfest

Current Time: Jan 25, 2015 at 5:36:21 AM

Latest Report: Jan 25, 2015 at 4:00 AM


Visibility: N/A

Pressure: 29.56 "Hg

Humidity: 80%

Dew point: 12 °F

Location of HonningsvågLocation

Historic Weather in Honningsvåg — Graph

°F

Honningsvåg temperature yesterday

Maximum temperature yesterday: 21 °F (at 12:00 AM)
Minimum temperature yesterday: 12 °F (at 10:00 PM)
Average temperature yesterday: 17 °F

Past Weeks' High & Low Weather Summary

 TemperatureHumidityPressure
High31 °F (Jan 17, 5:00 PM)99% (Jan 17, 8:00 PM)30.37 "Hg (Jan 17, 8:00 PM)
Low4 °F (Jan 13, 11:00 AM)35% (Jan 23, 9:00 PM)28.85 "Hg (Jan 14, 2:00 AM)
Average19 °F74%29.62 "Hg
* Reported Jan 10 3:00 AM — Jan 25 3:00 AM, Honningsvåg, Weather by CustomWeather, © 2014

Note: Actual official high and low records may vary slightly from our data, if they occured in-between our weather recording intervals... More about our weather records

Advertising

Honningsvåg weather history for previous 24 hours

 ConditionsComfort  
Time TempWeatherWind HumidityBarometerVisibility
3:00 AM
Jan 25
16 °FCold.2 mph76%29.55 "HgN/A
2:00 AM14 °FCold.2 mph75%29.55 "HgN/A
1:00 AM15 °FCold.3 mph76%29.54 "HgN/A
12:00 AM13 °FCold.No wind71%29.54 "HgN/A
11:00 PM
Jan 24
15 °FCold.1 mph71%29.53 "HgN/A
10:00 PM12 °FCold.1 mph74%29.53 "HgN/A
9:00 PM16 °FCold.2 mph67%29.50 "HgN/A
8:00 PM16 °FCold.2 mph67%29.50 "HgN/A
7:00 PM17 °FCold.7 mph69%29.50 "HgN/A
6:00 PM17 °FCold.5 mph68%29.47 "HgN/A
5:00 PM17 °FCold.5 mph68%29.47 "HgN/A
4:00 PM17 °FCold.3 mph68%29.47 "HgN/A
3:00 PM18 °FCold.3 mph64%29.44 "HgN/A
2:00 PM18 °FCold.7 mph64%29.44 "HgN/A
1:00 PM18 °FCold.7 mph68%29.47 "HgN/A
12:00 PM18 °FCold.7 mph69%29.47 "HgN/A
11:00 AM18 °FCold.9 mph70%29.47 "HgN/A
10:00 AM17 °FCold.9 mph72%29.50 "HgN/A
9:00 AM17 °FCold.8 mph70%29.53 "HgN/A
8:00 AM16 °FCold.8 mph72%29.54 "HgN/A
7:00 AM17 °FCold.9 mph70%29.55 "HgN/A
6:00 AM16 °FCold.12 mph72%29.58 "HgN/A
5:00 AM17 °FCold.12 mph72%29.59 "HgN/A
Weather by CustomWeather, © 2014

See weather overviewHow to use our weather pages